Location: Unnamed
(47.6264°N, 122.3366°W)
Time: 03:29:59
(UTC-07:00)

X-37B - Pass Details

Date: 29 June 2021
Orbit: 383 x 392 km, 45.0° (Epoch: 01 July)

Event Time Altitude Azimuth Distance (km) Brightness Sun altitude
Rises 00:18:57 0° 273° (W) 2,258 4.7 -18.1°
Reaches altitude 10° 00:21:13 10° 260° (W) 1,402 3.4 -18.2°
Enters shadow 00:21:56 14° 251° (WSW) 1,170 2.9 -18.2°
